Weather History for KLEB - November, 2013

Change the Weather History Date:

Monday, November 25, 2013

  Actual Average Record
Temperature  
Mean Temperature 18 °F -  
Max Temperature 28 °F 40 °F 64 °F (2004)
Min Temperature 7 °F 25 °F 0 °F (1938)
Degree Days  
Heating Degree Days 48    
Moisture  
Dew Point 2 °F    
Average Humidity 48    
Maximum Humidity 73    
Minimum Humidity 25    
Precipitation  
Precipitation 0.00 in - - ()
Sea Level Pressure  
Sea Level Pressure 30.30 in    
Wind  
Wind Speed 4 mph (SSW)    
Max Wind Speed 9 mph    
Max Gust Speed -    
Visibility 10 miles    
Events      
Averages and records for this station are not official NWS values.
T = Trace of Precipitation, MM = Missing Value Source: NWS Daily Summary

Daily Weather History Graph

Daily Weather History Graph

Search for Another Location

Airport or City:

Trip Planner

Search our weather history database for the weather conditions in past years. The results will help you decide how hot, cold, wet, or windy it might be!

Date:

Astronomy

Nov. 25, 2013 Rise Set
Actual Time 6:56 AM EST 4:16 PM EST
Civil Twilight 6:24 AM EST 4:48 PM EST
Nautical Twilight 5:48 AM EST 5:23 PM EST
Astronomical Twilight 5:14 AM EST 5:57 PM EST
Moon 11:45 PM EST (11/25) 12:04 PM EST (11/25)
Length of Visible Light 10h 23m
Length of Day
9h 20m
Waning Gibbous, 51% of the Moon is Illuminated
Nov 25
Waning Gibbous
Nov 25
Last Quarter
Dec 2
New
Dec 9
First Quarter
Dec 17
Full

Hourly Weather History & Observations

Time (EST) Temp. Windchill Dew Point Humidity Pressure Visibility Wind Dir Wind Speed Gust Speed Precip Events Conditions
12:53 AM 15.1 °F 6.4 °F -8.0 °F 36% 30.25 in 10.0 mi SW 5.8 mph - N/A   Clear
1:53 AM 14.0 °F 5.1 °F -7.1 °F 39% 30.27 in 10.0 mi WNW 5.8 mph - N/A   Clear
2:53 AM 9.0 °F 2.4 °F -2.0 °F 61% 30.29 in 10.0 mi SSW 3.5 mph - N/A   Clear
3:53 AM 9.0 °F 0.6 °F -2.0 °F 61% 30.31 in 10.0 mi South 4.6 mph - N/A   Clear
4:53 AM 9.0 °F 0.6 °F -2.0 °F 61% 30.33 in 10.0 mi South 4.6 mph - N/A   Clear
5:53 AM 10.0 °F 3.6 °F -2.0 °F 58% 30.36 in 10.0 mi South 3.5 mph - N/A   Clear
6:53 AM 7.0 °F - -2.0 °F 67% 30.38 in 10.0 mi Calm Calm - N/A   Clear
7:53 AM 7.0 °F - -0.0 °F 73% 30.40 in 10.0 mi Calm Calm - N/A   Clear
8:53 AM 16.0 °F - -2.9 °F 43% 30.38 in 10.0 mi Calm Calm - N/A   Clear
9:53 AM 19.0 °F 8.2 °F -5.1 °F 34% 30.39 in 10.0 mi NW 9.2 mph - N/A   Clear
10:53 AM 21.9 °F 14.5 °F -5.1 °F 30% 30.37 in 10.0 mi NNW 5.8 mph - N/A   Clear
11:53 AM 24.1 °F - -7.1 °F 25% 30.35 in - Calm Calm - N/A   Clear
12:53 PM 26.1 °F - -5.1 °F 26% 30.33 in 10.0 mi Calm Calm - N/A   Clear
1:53 PM 28.0 °F - -2.0 °F 27% 30.31 in 10.0 mi Calm Calm - N/A   Clear
2:53 PM 28.0 °F - 3.0 °F 34% 30.30 in 10.0 mi Calm Calm - N/A   Clear
3:53 PM 26.1 °F 19.4 °F 7.0 °F 44% 30.29 in 10.0 mi SSW 5.8 mph - N/A   Clear
4:53 PM 23.0 °F 17.0 °F 10.0 °F 58% 30.28 in 10.0 mi South 4.6 mph - N/A   Clear
5:53 PM 24.1 °F 16.0 °F 10.0 °F 55% 30.28 in 10.0 mi South 6.9 mph - N/A   Clear
6:53 PM 25.0 °F 20.7 °F 12.9 °F 60% 30.28 in 10.0 mi SSW 3.5 mph - N/A   Clear
7:53 PM 28.0 °F 20.8 °F 12.9 °F 53% 30.26 in 10.0 mi SSW 6.9 mph - N/A   Partly Cloudy
8:53 PM 28.9 °F 22.8 °F 12.0 °F 49% 30.24 in 10.0 mi South 5.8 mph - N/A   Partly Cloudy
9:53 PM 28.9 °F 21.1 °F 12.0 °F 49% 30.23 in 10.0 mi SSW 8.1 mph - N/A   Partly Cloudy
10:53 PM 28.9 °F 20.4 °F 12.9 °F 51% 30.22 in 10.0 mi South 9.2 mph - N/A   Partly Cloudy
11:53 PM 28.0 °F 21.7 °F 14.0 °F 56% 30.20 in 10.0 mi South 5.8 mph - N/A   Partly Cloudy